Simultaneous Nadir Overpasses (SNOs) Predictions

Prediction of SNOs between GOES-16 and NOAA-19 Satellite Orbit:

Table of predicted SNOs for the next 14.0 days since TLE Epoch: 7/3/2020
Index Date Time (GOES-16) GOES-16 Lat,Lon NOAA-19 Lat,Lon Distance(km) Time Diff (sec)
1 07/03/2020 22:57:50 -0.00, -75.18 0.08, -74.83 40.49 80
2 07/04/2020 22:46:09 -0.01, -75.18 0.74, -71.97 366.53 80
3 07/07/2020 11:07:01 0.01, -75.21 0.41, -76.91 193.88 80
4 07/08/2020 10:52:41 0.01, -75.22 -0.28, -74.06 132.73 80
5 07/09/2020 10:41:00 0.01, -75.23 -0.92, -71.20 459.47 80
6 07/10/2020 23:13:46 -0.01, -75.22 -0.88, -79.05 436.03 80
7 07/11/2020 23:02:04 -0.01, -75.23 -0.22, -76.19 108.63 80
8 07/12/2020 22:53:03 -0.01, -75.25 0.44, -73.33 218.95 80
9 07/15/2020 11:11:18 0.01, -75.31 0.70, -78.28 338.85 80
10 07/16/2020 10:59:36 0.01, -75.33 0.05, -75.42 11.32 80
11 07/17/2020 10:50:36 0.02, -75.34 -0.65, -72.57 316.64 80
